Погода Троицко-Печерск

Погода Троицко-Печерск : погода сейчас, прогноз погоды и архив. Всё, что Вы хотите узнать о погоде Троицко-Печерск!

Хотите узнать прогноз погоды Троицко-Печерск? Тогда Вам сюда: Погода Троицко-Печерск

Поиск расширенной информации на нашем сайте:

Полезная информация:

Другие новости

Новости СМИ2

Главная страница сайта

Новости сайта

03.07.2017

Напоминаем, что на нашем специализированном сайте Метеоцентр.Азия вы можете получить высокодетализированные автоматические прогнозы погоды по пунктам России, СНГ и мира в авиационном формате (включающие направление и скорость ветра, видимость, явления погоды, количество и форму облачности, нижнюю и верхнюю границу облачности).

Рекомендуем:

Погода Троицко-Печерск - сегодня

Время (UTC), дата Ветер
(°,м/с) 
Видим.   Явления Облачность Т
(°С)
Тd
(°С)
f(%) Тe
(°С)
Pmin
(гПа)
dP
(гПа)
Po
(мм)
O2
(г/м3)
Тmin Tmax R s Состояние
почвы
09 15.09.19 190 (Ю) 4{10}  20000 м    8/8 870 м 
[Sc]
+10.3 +2.9 60 +9  1001.8  0.2  739  286           
12 15.09.19 210 (ЮЗ) 5{11}  20000 м    10/10 900 м 
[Sc]
+10.6 +2.7 58 +9  1001.4  -0.4  739  286           
15 15.09.19 190 (Ю) 4{10}  20000 м    8/0 средняя 
[Ac trans]
+9.5 +2.1 60 +9  1000.8  -0.7  738  287    +11.4       
18 15.09.19 190 (Ю) 20000 м    6/0 средняя 
[Ac trans]
+7.2 +2.1 70 +6  999.3  -1.6  737  289           
21 15.09.19 190 (Ю) 20000 м    4/0 средняя 
[Ac trans]
+4.4 +1.9 84 +3  998.7  -0.7  736  292           
00 16.09.19 200 (Ю) 20000 м    4/0 средняя, верхняя 
[Ac trans|Ci fib]
+4 +3.3 95 +3  997.9  -0.9  736  292           
03 16.09.19 190 (Ю) 20000 м    10/8 480 м средняя 
[Sc|Ac As]
+5.8 +4.4 91 +5  997.6  -0.2  736  289  +3.8        влажная 
06 16.09.19 210 (ЮЗ) 4{10}  20000 м    10/3 600 м средняя, верхняя 
[Cu hum|Ac trans|Cs]
+8 +2.9 70 +7  997.3  -0.7  735  287           
09 16.09.19 220 (ЮЗ) 20000 м    6/3 600 м средняя, верхняя 
[Sc|Ac trans|Ci fib]
+12.1 -1.2 40 +12  996.4  -0.6  735  284           
12 16.09.19 190 (Ю) 20000 м    6/5 600 м средняя 
[Sc|Ac trans]
+12.1 -0.5 42 +12  995.7  -0.7  734  283           
15 16.09.19 180 (Ю) 20000 м    8/1 600 м средняя 
[Sc|Ac trans]
+9.4 +1.7 59 +10  994.9  -0.9  734  286    +12.7       
18 16.09.19 190 (Ю) 10 км  слаб. ливневой дождь  10/6 500 м кучево-дожд., средняя 
[Cb cap|Ac As]
+7.1 +2.3 71 +7  993.9  -1.1  733  287           
21 16.09.19 150 (ЮВ) 10 км  слаб. ливневой дождь  10/8 480 м кучево-дожд., средняя 
[Cb cap|Ac As]
+5.8 +4.9 94 +6  992.2  -1.8  732  288           
00 17.09.19 150 (ЮВ) 4000 м  слаб. дождь{ливн. осадки}  10/10 360 м 
[Sc diur, vesp]
+6.6 +5.9 95 +6  991.3  -0.8  731  287           
03 17.09.19 170 (Ю) 20000 м  {дождь}  10/10 360 м 
[Frnb]
+6.8 +6.4 97 +7  990  -1.3  730  286  +5.7    0.5    влажная 
06 17.09.19 200 (Ю) 20000 м  {дождь}  10/10 600 м 
[Sc]
+8.1 +6.5 90 +9  989.5  -0.4  730  284           
09 17.09.19 190 (Ю) 20000 м  в посл. час дождь  8/6 300 м средняя 
[Sc|Ac trans]
+8.9 +7 88 +9  990.8  1.3  731  284           
12 17.09.19 240 (ЮЗ) 20000 м    8/6 300 м средняя 
[Sc|Ac trans]
+11.6 +4.5 62 +13  991.3  0.7  731  282           
15 17.09.19 190 (Ю) 20000 м    10/10 300 м 
[Sc]
+9.3 +6.7 84 +9  991  -0.5  731  284    +12.1  0.3     
18 17.09.19 180 (Ю) 20000 м  {снег}  9/6 630 м средняя 
[Sc|Ac trans]
+7.5 +6.4 93 +8  991.3  0.2  731  286           
21 17.09.19 тихо ()   10 км    10/8 300 м средняя 
[Frnb|Ac As]
+6.3 +5.9 97 +6  991.6  0.3  731  287           
00 18.09.19 160 (Ю) 10 км  дымка  10/10 210 м 
[St]
+5.2 +4.7 97 +6  991.4  -0.3  731  288           
03 18.09.19 150 (ЮВ) 4000 м  слаб. дождь  10/8 360 м средняя 
[Frnb|As op]
+7.4 +7 97 +8  991  -0.3  731  285  +4.6       
06 18.09.19 190 (Ю) 20000 м  слаб. дождь  8/8 500 м 
[Sc]
+8.8 +7.7 93 +9  991.2  0.3  731  284           
09 18.09.19 160 (Ю) 20000 м  {дождь}  9/8 600 м кучево-дожд., средняя 
[Cb cap|Ac trans]
+10.6 +6.1 74 +11  991.7  0.7  732  283           
Время (UTC), дата Ветер
(°,м/с) 
Видим.   Явления Облачность Т
(°С)
Тd
(°С)
f(%) Тe
(°С)
Pmin
(гПа)
dP
(гПа)
Po
(мм)
O2
(г/м3)
Тmin Tmax R s Состояние
почвы

Для получения пояснительной информации подведите курсор к названию столбца.

ПОГОДА Троицко-Печерск - архив

Всё, что Вы хотите узнать о погоде Троицко-Печерск - удобно и подробно!

Выберите нужную дату (начиная с 1 января 2018* года) и нажмите кнопку "Найти".
Будут отображены архивные сводки погоды по пункту Троицко-Печерск, начиная с указанной даты.


Отображать данные в формате CSV (для использования в таблицах Excel)


Внимание! Наш архив погоды предназначен исключительно для личного некоммерческого использования в познавательных целях. Если Вам необходимы официальные справки о состоянии погоды (для производственных, юридических, коммерческих и т.п. целей), обращайтесь в органы Росгидромета.

*Примечание: данная дата относится к архиву по метеостанциям СССР (Россия, СНГ, Балтия).
Архив по метеостанциям Зарубежной Европы и Азии (кроме Китая) хранится 10 дней, по другим регионам земного шара (Китай, Африка, Америка, Австралия, Океания) - 1 день.

Троицко-Печерск - район местоположения метеостанции


Название, широта, долгота, высота метеостанции:
Троицко-Печерск 62.7°ш. 56.2°д. 139 м над ур. моря [Российская Федерация]

Дополнительная информация

В oтличие oт бoльшинства пoгoдных сайтoв мы публикуем пoдрoбную метеoинфoрмацию в детальнoм прoфессиoнальнoм фoрмате.

Характеристики температуры и влажнoсти вoздуха измеряются на высoте 2 м в тени вдали oт зданий и деревьев.
Скoрoсть ветра измеряется на высoте 10 м (на урoвне рoста челoвека скoрoсть ветра ниже в 1.5-2 раза). Если метеoстанция нахoдится в гoрoде или в лесу, тo скoрoсть ветра занижена на 2-4 м/с пo сравнению с oткрытым местoм. Скoрoсть ветра над акватoриями крупных рек и oзёр, а также на вершинах хoлмoв на 2-5 м/с выше, чем в oбычных услoвиях.
Атмoсфернoе давление в разных тoчках местнoсти мoжет значительнo oтличаться oт давления на метеoстанции, в зависимoсти oт услoвий рельефа (при пoдъёме на 10 м давление пoнижается примернo на 1 мм рт.ст.).